This is the latest recevied weather packets stored in our database for station/object NM5PB-13. If no packets are shown the sender has not sent any weather packets the latest 10 day(s).
| Time | Temp. | Humidity | Pressure | Rain* | Wind** | Luminosity | Snow |
|---|---|---|---|---|---|---|---|
| 1777651335 | 8.89° C | 70% | 1017 hPa | 0 mm | - | - | - |
| 1777650429 | 8.33° C | 66% | 1017 hPa | 0 mm | - | - | - |
| 1777649526 | 7.78° C | 69% | 1017 hPa | 0 mm | - | - | - |
| 1777648623 | 7.78° C | 70% | 1017 hPa | 0 mm | - | - | - |
| 1777647712 | 7.78° C | 67% | 1017 hPa | 0 mm | - | - | - |
| 1777646802 | 7.78° C | 65% | 1017 hPa | 0 mm | - | - | - |
| 1777645895 | 7.78° C | 65% | 1017 hPa | 0 mm | - | - | - |
| 1777644982 | 7.22° C | 65% | 1017 hPa | 0 mm | - | - | - |
| 1777644063 | 7.22° C | 64% | 1017 hPa | 0 mm | - | - | - |
| 1777643153 | 7.22° C | 64% | 1017 hPa | 0 mm | - | - | - |
| 1777642242 | 6.67° C | 68% | 1017 hPa | 0 mm | - | - | - |
| 1777641337 | 6.11° C | 74% | 1017 hPa | 0 mm | - | - | - |
| 1777640423 | 5.56° C | 76% | 1017 hPa | 0 mm | - | - | - |
| 1777639507 | 5° C | 79% | 1017 hPa | 0 mm | - | - | - |
| 1777638604 | 5° C | 80% | 1017 hPa | 0 mm | - | - | - |
| 1777637694 | 4.44° C | 81% | 1017 hPa | 0 mm | - | - | - |
| 1777636781 | 4.44° C | 83% | 1017 hPa | 0 mm | - | - | - |
| 1777635878 | 4.44° C | 81% | 1017 hPa | 0 mm | - | - | - |
| 1777634963 | 4.44° C | 80% | 1016 hPa | 0 mm | - | - | - |
| 1777634050 | 4.44° C | 77% | 1016 hPa | 0 mm | - | - | - |
| 1777633142 | 4.44° C | 81% | 1016 hPa | 0 mm | - | - | - |
| 1777632236 | 4.44° C | 78% | 1017 hPa | 0 mm | - | - | - |
| 1777631319 | 4.44° C | 79% | 1017 hPa | 0 mm | - | - | - |
| 1777630403 | 3.89° C | 75% | 1017 hPa | 0 mm | - | - | - |
| 1777629492 | 3.89° C | 75% | 1017 hPa | 0 mm | - | - | - |
* Rain latest hour (hover to see other rain measurements)
** Current wind speed in m/s (hover to see current wind gust speed)